www.pogodaiklimat.ru

Погода и климат >> Архив погоды >> Россия >> Хакасия >> Таштып


ПОГОДА в Таштыпе

  • Прогноз погоды в Таштыпе
  • Монитор погоды в Таштыпе

АРХИВ ПОГОДЫ в Таштыпе

Время (UTC), дата Ветер
(напр.,м/с)
 
Видим.   Явления Облачность Т
(С)
Тd
(С)
f
(%)
Тe
(С)
Тes
(С)
Комфортность P
(гПа)
Po
(гПа)
Тmin
(С)
Tmax
(С)
R
(мм)
R24
(мм)
S
(см)
03 17.02 ЮЗ 1 50 км 10/0
[Ac As]
-11.0 -12.3 90 -13 -13 1025.4 967.3
06 17.02 штиль 0 50 км 4/0
[Ac trans]
-4.2 -9.7 65 -5 -1 1020.8 964.7
09 17.02 СВ 3 50 км ясно -1.5 -8.7 58 -6 -5 1017.1 961.5
12 17.02 СВ 2 50 км 5/0
[Cs]
-4.5 -10.1 65 -8 -8 1015.9 959.8 -1.4
15 17.02 ЮЗ 2 50 км 10/0
[Ac As Cs]
-10.8 -12.8 85 -15 -15 1016.2 958.7
18 17.02 штиль 0 50 км 10/0
[Ac As Cs]
-16.4 -17.0 95 -16 -16 1016.8 958.1
21 17.02 штиль 0 50 км 10/0
[Ac As]
-19.2 -20.4 90 -19 -19 1017.5 958.1
00 18.02 Ю 1 50 км ясно -21.6 -23.4 85 -25 -25 1018.2 958.1 -21.8 10
03 18.02 З 1 50 км 4/0
[Ci fib]
-18.2 -19.4 90 -21 -19 1017.3 958.1 -22.4
06 18.02 ЮВ 1 50 км 8/0
[Ci]
-9.8 -14.0 71 -12 -8 1014.5 957.2
09 18.02 В 2 50 км 10/0
[Ac As]
-6.5 -11.1 70 -11 -10 1012.6 956.3
12 18.02 В 1 50 км 10/0
[Ac As]
-7.7 -10.8 78 -10 -10 1012.9 956.4 -5.3
15 18.02 штиль 0 50 км 10/0
[Ac As]
-10.4 -11.7 90 -11 -11 1014.1 956.9
18 18.02 З 1 50 км 10/0
[Cs]
-11.6 -12.2 95 -14 -14 1015.2 957.7
21 18.02 ЮЗ 1 50 км 4/0
[Ci fib]
-10.3 -11.6 90 -13 -13 1017.3 959.9
00 19.02 ЮЗ 1 50 км 10/0
[Ac As]
-11.0 -11.6 95 -13 -13 1020.2 962.4 -13.7 10
03 19.02 штиль 0 50 км 10/0
[Ac As]
-7.5 -9.2 88 -8 -8 1021.0 964.0
06 19.02 ЮЗ 1 50 км 10/0
[Ac As]
-0.1 -5.5 67 -2 -0 1019.5 964.0
09 19.02 Ю 1 50 км 10/0
[Ac As]
+0.6 -5.2 65 -1 -0 1018.8 963.5
12 19.02 ЮЗ 1 50 км 10/0
[Ac As]
-1.4 -5.4 74 -3 -3 1019.8 964.1 +0.8
15 19.02 ЮВ 1 50 км 8/0
[Ac trans Ci fib]
-6.1 -6.9 94 -9 -9 1022.0 965.1
18 19.02 штиль 0 50 км 3/0
[Ci fib]
-10.7 -11.3 95 -11 -11 1024.1 966.3
21 19.02 ЮЗ 1 50 км 4/0
[Ci fib]
-13.2 -13.8 95 -16 -16 1025.6 967.0
00 20.02 штиль 0 50 км 8/5 1000 м
[Sc Ac trans]
-15.1 -15.6 96 -15 -15 1027.5 968.4 -16.1 10
03 20.02 ЮВ 2 50 км 9/0
[Cs]
-12.7 -13.3 95 -17 -16 1030.7 971.9
06 20.02 В 1 50 км 8/0
[Cs]
-5.4 -8.7 78 -8 -3 1025.6 968.8
09 20.02 В 2 50 км 6/0
[Ci fib]
-0.7 -5.9 68 -4 -3 1022.9 967.2
12 20.02 В 1 50 км ясно -2.9 -6.7 75 -5 -5 1023.2 966.9 -0.3
15 20.02 штиль 0 50 км ясно -11.3 -11.9 95 -11 -11 1025.4 967.3
18 20.02 ЮЗ 1 50 км ясно -15.8 -16.4 95 -18 -18 1026.7 967.4
21 20.02 З 1 50 км ясно -15.8 -16.4 95 -18 -18 1026.0 966.8
00 21.02 штиль 0 50 км ясно -18.0 -19.2 90 -18 -18 1025.6 966.0 -18.2 10
03 21.02 штиль 0 50 км 10/0
[Ac As Cs]
-14.8 -15.4 95 -15 -14 1025.7 966.8 -18.5
06 21.02 З 2 50 км 10/0
[Cs]
-5.1 -8.8 75 -9 -6 1023.9 967.1
09 21.02 З 5
{10}
50 км 10/0
[Cs]
+3.8 -4.6 54 -1 0 1023.5 968.6
12 21.02 З 4
{10}
10 км 10/8 1170 м
[Cb cap Ac As]
+0.7 -4.3 69 -4 -4 1027.3 971.5 +4.0
15 21.02 З 3 25 км 10/10 1200 м
[Cb cap]
-0.9 -4.8 75 -6 -6 1030.9 974.6
18 21.02 З 4
{11}
50 км 10/10 1110 м
[Cb cap]
-3.1 -8.1 68 -9 -9 1034.8 977.8
21 21.02 З 4
{10}
50 км 8/3 1000 м
[Cb cap Ci fib]
-6.5 -11.5 68 -13 -13 1037.8 980.1
00 22.02 ЮЗ 2 50 км ясно -11.2 -14.0 80 -16 -16 1040.9 981.9 -11.4 10
03 22.02 З 2 50 км ясно -9.3 -11.8 82 -14 -12 1043.5 982.8 -12.9
06 22.02 З 3 50 км 1/0
[Ac trans]
-2.9 -11.0 54 -8 -4 1039.8 982.6
09 22.02 З 1 50 км 3/0
[Ac trans]
-0.5 -10.8 46 -2 0 1038.3 981.7
12 22.02 ЮЗ 2 50 км ясно -6.7 -11.8 67 -11 -11 1040.1 982.0 -0.4
15 22.02 ЮВ 1 50 км ясно -10.8 -12.8 85 -13 -13 1041.9 982.9
18 22.02 З 2 50 км ясно -10.5 -12.5 85 -15 -15 1041.6 982.9
21 22.02 ЮЗ 3 50 км ясно -10.1 -12.1 85 -16 -16 1041.5 982.8
00 23.02 ЮЗ 2 50 км 10/4 1000 м
[Cb cap Ac As Cs]
-8.5 -11.5 79 -13 -13 1041.5 983.1 -14.0 9
03 23.02 З 2 50 км 10/0
[Ac As]
-6.7 -10.4 75 -11 -10 1042.0 984.0
06 23.02 ЮЗ 2 50 км 10/3 1000 м
[Sc Ac As Ci fib]
-2.7 -8.8 63 -6 -5 1039.2 982.2
09 23.02 ЮЗ 1 50 км 6/0
[Ac As]
+0.6 -10.0 45 -1 +1 1036.3 980.1
12 23.02 ЮЗ 1 50 км ясно -5.0 -10.4 66 -7 -7 1036.0 978.6 +1.7
15 23.02 З 1 50 км ясно -11.0 -13.0 85 -13 -13 1036.6 977.9
18 23.02 штиль 0 50 км ясно -16.1 -16.7 95 -16 -16 1036.1 976.3
21 23.02 СЗ 1 50 км ясно -17.4 -18.0 95 -20 -20 1034.2 974.3
00 24.02 З 1 50 км ясно -18.4 -19.6 90 -21 -21 1032.7 972.7 -20.1

 

Местоположение метеостанции Таштып (Хакасия, Россия): широта 52.80 долгота 89.88 высота над уровнем моря 450 м.

В архиве по умолчанию представлена погода в Таштыпе за последнюю неделю. Архивные данные за месяц целиком и за предыдущие месяцы, начиная с января 2011 года, Вы можете получить, выбрав интересующий диапазон дат из раскрывающегося списка и нажав кнопку "Ввод!".


*Определитесь, кто Вы:
робот инопланетянин человек

Внимание! Время в таблицах - всемирное. Для получения местного времени необходимо прибавить поправку, которая равна 7 ч.

Смотрите также архив погоды в соседних городах и на ближайших метеорологических станциях:

Погода в Аскизе (Хакасия, Россия) (54 км)
Погода в Бее (Хакасия, Россия) (75 км)
Погода в Неожиданном (Хакасия, Россия) (76 км)
Погода в Большом Оне (Хакасия, Россия) (83 км)
Погода в Кантегире (Хакасия, Россия) (86 км)
Погода в Усть-Кабырзе (Кемеровская область, Россия) (96 км)
Погода в Карловом Створе (Хакасия, Россия) (100 км)
Погода в Черемушках (Хакасия, Россия) (101 км)
Погода в Уйбате (Хакасия, Россия) (107 км)
Погода в Саяногорске (Хакасия, Россия) (109 км)

Пояснения к столбцам:

Ветер - указаны скорость ветра в м/с - средняя за 10 мин, порывы в срок и между сроками (в фигурных скобках) и направление, откуда дует ветер: С - северный, СВ - северо-восточный, В - восточный, ЮВ - юго-восточный, Ю - южный, ЮЗ - юго-западный, З - западный, СЗ - северо-западный.
Видимость - горизонтальная дальность видимости в метрах или километрах. При видимости от 1 до 10 км при отсутствии осадков обычно наблюдается дымка, при ухудшении видимости до 1 км и менее - туман. В сухую погоду видимость может ухудшаться дымом, пылью или мглою.
Явления - указаны атмосферные явления, наблюдавшиеся в срок или в последний час перед сроком; фигурными скобками обозначены явления, наблюдавшиеся между сроками (за 1-3 часа до срока); квадратными скобками обозначены град или гололедные отложения с указанием их диаметра в мм.
Облачность - указаны через наклонную черту общая и нижняя облачность в баллах и высота нижней границы облаков в метрах; квадратными скобками обозначены формы облаков: Ci - перистые, Cs - перисто-слоистые, Cc - перисто-кучевые, Ac - высококучевые, As - высокослоистые, Sc - слоисто-кучевые, Ns - слоисто-дождевые, Cu - кучевые, Cb - кучево-дождевые. Подробнее классификацию облаков см. в Атласе облаков (PDF).
T - Температура воздуха - температура, измеренная на высоте 2 м над землей.
Td - Температура точки росы - температура, при понижении до которой содержащийся в воздухе водяной пар достигнет насыщения.
f - Относительная влажность воздуха - влажноcть воздуха, измеренная на высоте 2 м над землей.
Te - Эффективная температура - температура, которую ощущает одетый по сезону человек в тени. Характеристика душности погоды. При расчете учитывается влияние влажности воздуха и скорости ветра на теплоощущения человека.
Tes - Эффективная температура на солнце - температура, которую ощущает человек, с поправкой на солнечный нагрев. Характеристика знойности погоды. Зависит от высоты солнца над горизонтом, облачности и скорости ветра. Ночью, в пасмурную погоду, а также при ветре 12 м/с и более поправка равна нулю.
P - Атмосферное давление - приведенное к уровню моря атмосферное давление.
Po - Атмосферное давление - измеренное на уровне метеостанции атмосферное давление.
Tmin - Минимальная температура - минимум температуры воздуха на высоте 2 м над землей.
Tmax - Максимальная температура - максимум температуры воздуха на высоте 2 м над землей.
R - Количество осадков - Количество выпавших осадков за период времени, мм. При наведении курсора мыши на число - период времени, за который выпало указанное количество осадков.
R24 - Количество осадков - Количество выпавших осадков за 24 часа, мм.
S - Снежный покров - Высота снежного покрова, см. При наведении курсора мыши на число - состояние снежного покрова и степень покрытия местности в баллах.